Wetbulb
58.57 55.44 53.62 54.95 55.68 54.83 54.11 53.85 53.23 55.78 56.70 57.00 56.66 56.84 58.78 60.98 65.64 66.30 67.59 68.63 69.25 69.70 71.30 72.55 73.39 73.52 73.65 74.38 74.76 75.64 75.61 76.36 76.01 75.18 74.54 74.73 73.80 75.38 75.80 77.94 76.28 76.06 74.85 75.70
55.45 53.06 56.46 56.49 55.85 53.88 54.28 53.72 53.61 55.84 57.18 56.73 56.34 57.11 60.16 61.10 62.41 65.70 66.85 67.87 69.02 69.85 70.61 71.60 72.63 73.24 73.38 73.99 74.82 75.44 75.96 76.65 76.33 75.37 75.55 75.24 75.89 75.53 76.87 77.38 76.35 75.65 75.76 75.85
52.57 53.94 55.59 54.59 53.75 52.85 54.45 54.02 53.20 53.23 55.82 56.88 57.37 54.56 55.84 59.34 64.21 65.57 66.99 68.24 69.05 69.66 69.89 70.79 71.82 72.65 73.25 73.67 74.73 75.38 76.28 76.71 76.45 76.22 75.29 75.44 76.34 75.99 75.33 76.29 74.58 75.17 75.75 75.70
53.69 55.83 54.13 53.86 53.01 54.58 52.66 55.39 53.89 53.66 53.23 50.41 55.67 48.99 55.39 57.41 58.61 61.01 63.31 65.03 67.40 69.20 70.37 70.71 71.32 72.14 72.97 73.67 75.02 75.95 76.54 76.55 76.33 76.53 74.68 74.55 72.80 73.14 76.10 76.05 74.41 74.55 75.55 75.75
52.12 53.35 53.13 52.74 53.59 55.27 53.78 55.35 54.94 54.54 53.27 53.07 52.74 51.10 52.79 56.78 56.06 58.36 62.07 63.48 66.83 68.82 70.07 70.07 70.90 72.20 73.25 74.12 74.64 75.56 76.52 76.52 76.32 76.15 75.22 74.18 74.59 75.54 76.36 73.59 74.44 75.04 75.67 76.09
54.81 57.22 55.61 54.89 55.48 55.52 56.24 54.75 55.20 55.00 53.56 48.55 51.60 50.42 51.21 55.01 55.63 58.95 63.02 64.29 67.02 68.51 69.71 70.54 71.16 72.20 73.09 74.17 74.59 74.97 75.76 75.95 76.17 75.65 74.90 74.75 74.34 74.33 75.46 74.91 73.16 73.26 74.24 75.07
53.97 54.19 56.13 56.40 54.04 56.22 55.12 52.86 48.24 47.76 48.16 47.33 52.69 50.76 52.68 55.34 57.15 58.95 63.41 64.23 67.74 69.33 69.69 70.06 70.59 71.61 73.02 73.09 73.98 74.51 75.18 75.16 75.76 75.06 74.53 74.71 74.54 74.61 74.49 74.93 72.95 73.33 73.14 73.72
50.34 49.38 53.99 55.95 55.21 53.71 53.93 53.25 48.82 43.95 45.70 48.08 52.58 48.73 52.44 56.68 58.15 61.26 63.14 65.60 68.08 69.37 70.10 70.47 71.07 72.02 72.68 72.99 73.71 73.95 74.67 74.35 75.12 74.98 74.43 75.09 74.98 74.30 76.29 74.86 73.12 72.80 73.69 74.71
51.31 50.45 54.94 55.75 56.92 56.21 53.94 51.55 54.68 50.37 51.43 48.15 50.48 52.40 56.19 56.76 58.36 59.68 61.48 63.49 66.79 69.05 69.91 70.55 71.04 71.82 72.62 72.95 73.45 74.04 74.36 73.97 74.23 74.68 74.56 74.82 74.51 75.01 75.90 75.24 74.94 73.35 75.09 75.28
54.00 50.25 55.09 55.21 56.46 56.87 55.02 56.29 50.39 51.17 45.40 44.58 48.98 49.74 50.75 54.33 57.22 58.95 60.59 63.02 64.24 68.37 69.90 70.72 70.92 71.69 72.59 73.18 73.60 74.46 73.84 74.27 74.62 74.75 74.39 74.31 74.80 75.01 75.04 74.98 74.68 74.56 75.07 75.70
56.92 54.68 53.89 56.54 55.18 53.88 53.78 52.60 53.06 52.68 51.22 46.81 45.80 49.30 56.17 55.67 58.49 59.01 60.94 63.10 64.68 66.57 68.97 70.79 71.11 72.03 72.54 73.12 73.53 73.94 74.30 74.38 74.41 74.60 74.17 74.07 73.98 74.39 74.70 74.37 74.74 75.11 76.21 76.33
57.49 54.65 51.36 53.17 57.27 57.81 56.51 54.72 54.44 50.02 49.46 51.41 50.29 49.70 57.57 58.75 58.86 60.91 61.35 64.26 64.86 67.29 68.43 69.86 71.25 71.72 72.25 72.57 73.58 73.75 74.44 73.94 74.56 74.97 74.16 73.70 73.90 73.63 73.72 73.93 74.31 75.22 75.89 76.87
56.52 52.63 48.56 49.77 53.43 56.37 53.97 55.82 56.37 54.83 53.35 50.25 48.36 50.10 59.30 59.04 59.83 61.90 63.16 64.42 65.99 66.70 68.20 69.39 70.51 71.25 72.06 72.54 73.26 73.85 74.28 74.26 74.14 74.48 73.84 73.03 73.20 73.21 72.78 73.56 74.41 75.00 75.98 76.32
57.26 52.41 50.11 46.93 49.57 52.69 52.55 54.27 55.81 55.30 51.29 51.12 51.31 52.85 56.27 57.57 59.61 61.25 63.79 65.41 66.11 67.03 67.84 68.90 69.88 71.07 72.25 72.68 73.14 73.97 74.13 74.85 74.50 74.25 73.76 73.12 72.95 73.04 72.73 73.74 74.54 75.34 76.73 76.21
53.31 49.10 50.84 51.04 50.99 50.27 49.74 49.90 51.48 52.04 53.96 51.41 53.45 53.98 57.30 59.24 60.10 61.75 64.45 65.07 65.31 65.93 66.84 67.77 69.08 70.37 71.82 72.62 73.50 74.10 74.49 74.69 74.90 74.02 73.60 73.42 74.64 74.13 74.51 75.18 75.07 75.72 76.30 76.55
54.15 48.67 50.06 48.54 50.28 49.93 47.93 49.21 49.32 49.83 50.51 50.90 52.67 53.39 59.05 60.67 61.83 62.97 62.52 63.81 64.38 65.43 66.36 67.46 68.16 69.94 71.00 72.16 73.03 73.71 74.13 74.41 75.09 74.38 74.44 74.88 74.65 74.35 74.06 75.36 75.50 75.78 75.63 76.02
52.00 50.51 48.85 45.80 48.88 48.44 45.45 49.01 49.63 50.38 51.27 50.66 48.00 52.71 57.24 59.01 60.60 62.08 62.46 62.78 63.65 65.13 66.72 67.80 68.82 69.30 70.98 71.94 72.91 73.06 74.32 75.01 74.63 74.52 75.06 75.08 75.52 74.99 74.72 75.04 75.28 75.64 75.56 76.75
50.94 50.50 49.34 45.37 47.50 40.22 48.69 52.22 52.08 51.48 52.43 56.05 57.45 56.78 59.57 60.34 61.76 62.62 62.88 62.78 63.28 64.26 66.35 67.95 69.77 70.41 70.83 72.71 73.07 74.06 74.64 74.84 74.62 74.65 74.79 75.01 75.45 75.43 75.84 75.56 75.34 75.65 75.67 75.20
53.31 50.52 46.84 44.28 44.19 47.18 48.55 50.57 51.61 51.11 52.13 57.05 57.09 58.94 59.75 60.84 61.50 62.22 63.51 63.54 63.96 64.88 65.81 68.58 70.04 71.46 70.86 72.47 73.95 73.99 74.25 74.43 74.45 74.48 74.65 75.21 75.53 75.45 75.92 75.41 75.18 75.84 75.69 74.94
52.06 52.43 48.65 47.14 41.81 39.79 49.55 52.87 55.26 56.13 48.76 55.20 55.66 56.14 56.87 58.85 55.70 59.66 62.58 63.07 63.77 65.03 66.24 67.14 69.83 72.57 72.22 72.18 74.09 73.79 73.82 74.15 74.07 74.79 75.09 75.95 74.64 75.98 76.16 76.53 75.95 74.01 74.75 74.05
48.19 48.67 45.84 45.85 44.27 47.03 53.10 53.55 55.47 45.62 48.06 55.15 55.53 56.15 56.55 56.19 58.75 61.33 62.88 63.11 63.53 64.60 66.04 67.41 69.63 72.18 72.80 71.88 73.63 73.41 74.02 73.98 75.45 75.79 75.97 75.73 76.36 75.92 76.28 72.95 75.49 74.90 74.84 74.65
46.84 45.70 45.52 46.46 43.70 41.27 53.95 52.85 47.96 52.44 55.09 54.79 54.93 55.59 55.80 57.45 59.11 60.62 62.22 62.90 62.61 63.62 65.88 67.04 68.41 70.05 74.30 73.16 73.27 73.47 73.74 75.45 76.32 75.70 75.80 75.42 76.13 75.20 74.74 70.21 68.38 70.60 71.76 73.88
44.54 48.09 46.57 47.52 47.51 54.47 55.37 53.40 54.68 55.31 54.11 54.73 55.27 56.04 56.93 56.45 57.80 59.93 61.21 62.37 62.51 63.08 65.70 67.06 68.16 69.51 73.41 73.65 74.01 73.01 74.75 75.82 75.90 75.47 74.62 74.94 74.97 74.95 74.28 70.67 70.46 69.43 70.21 72.23
50.14 52.03 47.91 47.96 50.19 51.68 53.58 55.07 55.73 55.81 55.09 56.05 56.36 56.17 56.40 55.85 57.57 59.35 61.08 62.27 62.73 62.42 65.19 66.47 66.94 68.22 68.18 73.78 74.19 74.74 75.58 76.28 75.80 75.09 75.04 74.79 73.75 72.91 74.07 73.05 72.47 72.90 73.15 71.64
50.20 50.36 48.22 48.00 51.01 51.69 53.77 54.39 55.50 55.69 56.88 56.95 57.87 57.28 56.72 56.72 57.35 59.45 60.72 62.15 62.43 62.82 64.80 65.92 65.94 67.91 68.62 68.21 74.29 74.96 75.97 76.23 75.28 75.45 75.16 74.99 74.63 74.75 76.72 74.90 72.82 73.15 75.37 71.37
50.98 48.73 45.78 44.94 52.21 50.91 52.23 54.47 56.33 55.76 56.09 57.08 57.12 57.45 58.16 58.20 58.38 59.77 60.59 62.58 62.82 62.55 64.39 65.13 66.26 68.37 68.62 68.66 73.49 74.65 75.79 76.04 75.42 74.77 74.91 74.75 74.77 76.69 73.53 72.82 71.16 50.52 52.25 48.02
MSLP
1006.81 1006.49 1005.38 1004.99 1005.43 1006.18 1006.07 1005.46 1004.90 1004.52 1004.93 1004.61 1003.68 1003.20 1002.71 1002.50 1003.45 1003.91 1004.16 1004.55 1004.87 1005.34 1006.04 1006.92 1007.78 1008.60 1009.18 1009.86 1010.70 1011.51 1012.18 1012.87 1013.66 1013.84 1014.44 1014.92 1014.88 1015.69 1015.99 1016.09 1016.15 1016.42 1016.93 1016.97
1006.85 1005.84 1005.36 1005.76 1006.29 1006.22 1005.91 1005.34 1004.69 1004.55 1004.33 1004.12 1003.16 1002.47 1001.88 1001.73 1001.83 1002.65 1003.10 1003.42 1003.94 1004.55 1005.20 1006.10 1007.05 1007.97 1008.83 1009.53 1010.37 1011.17 1011.89 1012.74 1013.36 1013.42 1013.87 1014.72 1014.74 1015.09 1015.73 1015.77 1015.79 1016.25 1016.58 1016.84
1005.85 1005.28 1006.02 1005.99 1005.72 1005.83 1005.38 1004.88 1004.70 1004.54 1004.08 1003.00 1002.85 1001.29 1000.84 1000.80 1001.65 1001.84 1002.09 1002.42 1002.86 1003.67 1004.36 1005.38 1006.36 1007.26 1008.09 1008.97 1009.98 1010.83 1011.57 1012.31 1012.93 1013.17 1013.87 1014.70 1014.98 1015.27 1015.62 1015.68 1015.64 1016.05 1016.33 1016.48
1005.86 1005.50 1005.64 1005.81 1005.42 1005.45 1004.63 1004.56 1005.05 1004.56 1003.75 1002.56 1002.48 1001.06 1000.23 1000.59 1000.78 1000.75 1001.06 1001.16 1001.86 1002.75 1003.85 1004.64 1005.55 1006.57 1007.43 1008.39 1009.55 1010.30 1011.18 1011.96 1012.60 1013.14 1013.35 1014.05 1014.06 1014.76 1014.99 1015.03 1015.29 1015.68 1016.19 1016.34
1005.05 1005.48 1005.45 1005.09 1004.84 1004.78 1004.55 1004.88 1004.89 1004.47 1003.64 1002.61 1001.50 1001.11 999.55 999.97 999.78 999.93 1000.22 1000.60 1001.12 1001.88 1003.01 1003.93 1004.78 1005.82 1006.75 1007.93 1008.96 1009.90 1010.99 1011.80 1012.18 1012.92 1013.06 1013.54 1014.02 1014.38 1014.39 1014.71 1015.30 1015.65 1016.14 1016.28
1005.39 1005.35 1005.63 1004.85 1004.79 1005.05 1004.88 1004.74 1004.02 1003.47 1003.17 1001.82 1001.04 1001.07 999.37 999.28 999.62 999.81 1000.00 1000.46 1001.00 1001.51 1002.48 1003.51 1004.42 1005.31 1006.32 1007.53 1008.61 1009.54 1010.70 1011.46 1012.16 1012.77 1013.12 1013.31 1013.66 1014.09 1014.36 1014.34 1014.81 1015.10 1015.49 1016.04
1004.37 1004.16 1004.36 1004.75 1004.42 1004.17 1004.54 1003.76 1002.66 1001.97 1001.50 1000.65 1000.82 1000.78 999.63 999.56 999.71 999.92 1000.02 1000.27 1001.05 1001.56 1002.19 1003.04 1003.89 1004.82 1006.18 1007.15 1008.19 1009.18 1010.37 1011.11 1011.79 1012.39 1012.84 1013.19 1013.32 1013.75 1014.09 1014.37 1014.12 1014.30 1014.62 1015.14
1003.67 1002.97 1003.71 1004.18 1003.83 1002.97 1003.15 1002.75 1002.35 1001.63 1001.04 1000.56 1000.74 1000.07 999.00 999.43 999.79 999.92 999.96 1000.46 1000.99 1001.65 1002.11 1002.86 1003.76 1004.84 1005.89 1006.67 1007.74 1008.76 1009.77 1010.73 1011.40 1011.93 1012.46 1013.05 1013.42 1013.43 1014.04 1014.40 1013.64 1014.09 1014.12 1014.59
1003.88 1003.45 1003.80 1003.94 1003.65 1003.54 1002.55 1002.98 1002.32 1002.09 1001.44 1001.45 1000.21 999.72 999.28 999.31 999.60 999.84 1000.03 1000.33 1000.87 1001.37 1001.85 1002.69 1003.45 1004.51 1005.53 1006.22 1007.05 1008.07 1009.36 1010.41 1010.97 1011.43 1012.10 1012.73 1013.19 1013.32 1013.73 1013.69 1014.08 1014.05 1014.22 1014.23
1004.79 1004.21 1003.59 1003.69 1003.77 1003.39 1003.34 1002.88 1002.38 1001.87 1001.31 1000.63 999.74 999.60 998.99 999.23 999.79 1000.08 1000.05 1000.48 1000.69 1001.27 1001.60 1002.25 1003.16 1004.17 1005.11 1005.81 1006.45 1007.53 1008.91 1009.69 1010.31 1010.77 1011.53 1012.18 1012.77 1013.22 1013.39 1013.81 1014.12 1013.98 1014.27 1014.64
1005.54 1005.06 1003.81 1003.59 1002.77 1002.26 1002.98 1002.82 1002.77 1002.04 1001.46 1000.74 999.92 998.90 998.74 999.64 1000.29 1000.49 1000.57 1001.29 1001.35 1001.13 1001.51 1001.93 1002.70 1003.70 1004.68 1005.44 1006.05 1006.83 1008.00 1009.03 1009.72 1010.22 1010.93 1011.66 1012.31 1012.85 1013.35 1013.53 1013.96 1014.14 1014.33 1014.57
1006.51 1005.53 1004.21 1003.56 1003.11 1003.55 1003.46 1002.71 1002.15 1001.55 1001.39 1001.14 1000.57 999.76 999.46 1000.15 1000.56 1001.09 1001.42 1001.91 1002.08 1002.05 1001.48 1001.88 1002.42 1003.28 1004.16 1005.10 1005.81 1006.41 1007.35 1008.39 1009.03 1009.62 1010.48 1011.27 1011.93 1012.35 1012.73 1013.14 1013.49 1013.85 1014.00 1014.31
1007.10 1005.97 1004.70 1003.57 1002.78 1003.49 1003.20 1002.73 1002.92 1002.31 1002.10 1001.39 1000.53 999.65 999.96 1000.29 1000.64 1001.59 1002.31 1002.72 1002.75 1002.50 1002.20 1002.21 1002.37 1003.08 1003.92 1004.73 1005.47 1006.12 1006.97 1008.06 1008.77 1009.37 1010.03 1010.65 1011.40 1011.92 1012.19 1012.62 1013.10 1013.48 1013.79 1014.02
1008.62 1006.87 1005.84 1004.76 1003.95 1004.12 1004.10 1003.75 1003.50 1003.11 1002.34 1001.12 1000.41 999.97 999.99 1000.25 1001.41 1002.87 1003.37 1003.58 1003.63 1003.32 1002.86 1002.68 1002.72 1003.11 1003.90 1004.54 1005.20 1005.89 1006.50 1007.42 1008.27 1008.84 1009.50 1010.03 1010.61 1011.13 1011.50 1011.96 1012.58 1013.03 1013.55 1013.77
1008.51 1007.22 1006.65 1006.00 1005.81 1005.48 1005.08 1004.65 1004.25 1003.53 1002.99 1002.61 1001.67 1001.14 1001.02 1001.64 1002.73 1003.90 1004.15 1004.42 1004.19 1004.11 1003.70 1003.10 1002.95 1002.93 1003.78 1004.38 1004.89 1005.63 1006.14 1006.94 1007.60 1008.35 1009.00 1009.49 1010.09 1010.74 1011.27 1011.58 1012.13 1012.67 1013.14 1013.46
1008.68 1007.96 1007.66 1007.02 1006.47 1005.89 1005.23 1004.72 1004.37 1004.01 1003.60 1003.10 1002.73 1002.19 1002.63 1002.77 1003.44 1004.38 1005.11 1004.94 1004.73 1004.72 1004.37 1003.97 1003.32 1002.99 1003.20 1003.80 1004.45 1005.00 1005.68 1006.21 1007.03 1007.84 1008.33 1009.06 1009.80 1010.34 1010.90 1011.47 1011.97 1012.36 1012.67 1013.11
1008.81 1008.46 1007.98 1006.90 1006.60 1006.45 1005.20 1004.12 1004.09 1003.88 1003.70 1003.57 1003.03 1002.73 1003.15 1004.06 1004.50 1005.33 1005.72 1005.79 1005.54 1005.27 1004.76 1004.08 1003.61 1002.90 1002.74 1003.15 1004.05 1004.48 1005.19 1005.71 1006.35 1007.18 1007.90 1008.62 1009.45 1009.99 1010.46 1011.04 1011.56 1011.91 1012.21 1012.71
1009.19 1009.23 1008.91 1007.68 1007.36 1006.09 1004.57 1005.26 1005.48 1005.16 1004.92 1004.77 1004.62 1004.23 1004.80 1005.52 1005.68 1005.58 1006.51 1006.37 1006.00 1005.56 1005.12 1004.43 1003.71 1002.98 1002.28 1002.49 1003.08 1004.10 1004.59 1005.16 1005.76 1006.62 1007.52 1008.17 1008.84 1009.40 1009.95 1010.46 1010.84 1011.47 1011.82 1012.03
1009.16 1009.38 1008.76 1007.99 1006.77 1005.69 1005.52 1005.44 1006.36 1006.19 1005.85 1006.95 1006.76 1006.38 1006.45 1006.40 1005.87 1005.78 1006.62 1006.62 1006.25 1005.77 1005.21 1004.57 1003.86 1003.27 1002.63 1002.04 1002.60 1003.56 1004.06 1004.64 1005.34 1005.96 1006.79 1007.58 1008.29 1008.78 1009.42 1009.73 1010.01 1010.49 1010.92 1011.58
1009.57 1009.67 1009.13 1007.69 1007.53 1006.37 1006.55 1007.39 1007.74 1007.72 1007.03 1008.11 1008.19 1007.92 1007.67 1007.19 1005.65 1005.15 1006.54 1006.60 1006.52 1006.04 1005.38 1004.77 1003.91 1002.91 1002.31 1002.46 1002.51 1003.22 1003.62 1004.21 1004.72 1005.28 1005.96 1006.82 1007.63 1008.06 1008.32 1009.09 1009.64 1010.02 1010.58 1011.06
1009.59 1009.63 1008.99 1008.27 1007.72 1007.30 1007.68 1008.25 1008.41 1008.36 1008.54 1008.98 1008.93 1008.75 1008.42 1007.93 1007.63 1007.10 1006.88 1006.74 1006.77 1006.15 1005.40 1004.88 1004.01 1002.89 1002.22 1002.19 1002.43 1002.88 1003.37 1003.85 1004.41 1005.05 1005.69 1006.48 1006.95 1007.51 1008.31 1009.79 1009.72 1010.97 1010.24 1010.50
1009.92 1009.51 1008.82 1008.84 1008.71 1008.02 1009.02 1008.77 1009.31 1009.51 1009.71 1009.61 1009.46 1009.14 1008.73 1008.34 1007.71 1007.21 1006.78 1006.65 1006.59 1006.15 1005.25 1004.79 1004.03 1003.36 1002.24 1002.20 1002.36 1002.66 1003.01 1003.57 1004.16 1004.70 1005.41 1006.10 1006.65 1007.47 1008.78 1009.40 1010.03 1010.53 1010.75 1011.00
1010.89 1010.79 1010.60 1010.29 1008.84 1009.00 1009.46 1009.64 1009.84 1010.10 1009.95 1009.68 1009.59 1009.24 1008.74 1008.37 1007.66 1007.13 1006.58 1006.37 1006.30 1006.06 1005.30 1004.77 1004.27 1003.48 1002.55 1002.33 1002.31 1002.31 1002.75 1003.42 1003.79 1004.25 1004.93 1005.65 1006.47 1007.27 1008.35 1009.37 1009.50 1009.55 1010.39 1011.23
1011.03 1011.95 1011.56 1011.23 1010.19 1009.91 1009.76 1009.85 1010.09 1010.09 1009.95 1009.85 1009.56 1009.05 1008.71 1008.05 1007.41 1006.78 1006.35 1006.02 1005.88 1005.74 1005.14 1004.53 1004.05 1003.41 1002.97 1002.36 1002.31 1002.30 1002.54 1003.16 1003.54 1003.81 1004.45 1005.28 1006.17 1007.25 1008.14 1008.88 1009.23 1009.07 1009.76 1010.21
1011.36 1011.69 1011.46 1010.95 1010.64 1010.31 1010.02 1009.80 1009.80 1009.86 1009.80 1009.53 1009.08 1008.59 1008.02 1007.52 1006.85 1006.53 1006.04 1005.72 1005.44 1005.19 1004.75 1004.23 1003.83 1003.32 1003.21 1003.09 1001.94 1002.03 1002.26 1002.85 1003.19 1003.53 1003.88 1004.45 1005.08 1005.92 1006.85 1007.37 1007.75 1007.89 1008.46 1009.34
1011.09 1011.10 1011.17 1010.68 1010.43 1010.38 1010.33 1010.13 1009.80 1009.53 1009.36 1008.90 1008.66 1008.07 1007.55 1007.03 1006.39 1006.06 1005.66 1005.28 1004.98 1004.76 1004.59 1004.09 1003.56 1003.03 1003.08 1002.94 1001.75 1001.61 1001.91 1002.41 1002.66 1002.99 1003.27 1003.65 1004.13 1005.26 1005.49 1006.77 1008.14 1008.93 1009.04 1009.72
Wind_Speed
6 11 12 11 5 8 9 11 12 11 5 13 11 12 14 7 13 14 14 16 17 19 18 17 17 14 13 13 13 13 12 10 9 9 7 7 8 7 7 6 9 7 6 6
8 15 14 1 9 9 10 11 11 10 6 11 11 15 15 11 11 14 16 17 18 18 18 19 17 17 17 14 14 13 13 12 10 7 5 5 6 7 7 7 8 7 8 6
13 1 6 5 9 9 12 12 9 13 15 16 9 15 2 5 4 9 14 16 17 19 19 19 19 18 17 16 15 14 14 13 12 9 6 5 6 4 7 8 7 8 8 8
9 10 11 13 12 11 14 1 6 13 15 12 8 11 13 3 7 8 10 12 15 18 18 18 19 17 16 16 15 15 15 14 12 12 8 10 9 8 7 7 7 7 8 7
4 3 6 11 11 7 12 2 11 12 15 14 16 7 6 2 6 12 7 3 10 15 19 19 19 18 18 16 16 14 14 13 11 11 8 8 8 7 7 7 10 8 8 7
14 5 8 10 3 7 7 12 13 14 11 12 4 6 7 4 11 12 7 1 7 13 17 18 18 16 15 15 15 14 15 14 12 11 11 11 11 9 6 8 10 9 8 8
10 15 17 9 12 14 11 15 11 8 10 7 6 9 6 8 8 10 9 3 7 12 17 17 18 17 16 17 16 14 16 15 14 12 12 12 10 11 10 9 9 9 8 8
8 7 10 5 11 7 10 10 7 8 9 8 4 6 6 9 5 8 4 2 6 10 14 16 17 17 19 19 18 17 16 13 15 13 12 11 11 9 8 9 9 8 8 9
3 6 3 7 11 11 8 12 7 12 11 9 11 3 11 4 8 8 8 2 5 11 13 16 17 18 18 18 18 19 16 16 15 14 12 12 11 10 9 10 7 7 6 7
2 8 3 2 4 11 11 9 9 11 13 14 8 4 10 3 8 9 11 11 2 8 13 15 16 16 16 17 17 18 17 17 16 15 13 12 12 12 9 8 10 8 8 7
4 6 9 7 11 8 7 11 10 12 10 11 13 8 6 3 6 8 11 13 9 4 9 13 15 16 16 16 16 17 18 16 15 15 13 13 13 12 11 10 10 9 9 9
3 8 11 15 15 7 14 16 16 11 13 11 11 13 1 2 5 5 9 13 12 8 7 10 14 16 16 16 15 16 17 16 15 14 14 14 14 13 13 11 11 10 9 9
5 8 10 13 16 11 13 9 12 12 13 15 15 11 7 4 1 13 14 14 13 12 3 6 11 14 15 16 16 16 17 17 15 13 14 14 15 14 13 13 11 11 9 9
3 13 15 14 16 14 13 14 12 12 11 14 15 12 14 4 11 16 14 13 13 12 7 5 8 11 12 14 16 15 16 15 16 16 15 15 15 16 15 14 13 12 10 10
8 14 13 13 15 16 18 19 20 21 18 18 18 19 14 11 16 13 13 12 12 12 12 8 7 9 12 14 15 15 16 16 17 16 16 16 14 14 13 13 13 12 11 10
6 9 8 15 17 19 20 21 21 21 22 24 22 23 21 18 7 10 11 12 12 13 12 11 11 10 11 14 15 16 17 17 17 17 17 15 14 14 14 13 12 12 12 11
11 10 8 14 8 11 15 16 16 16 17 17 20 19 6 11 10 9 8 11 12 13 14 14 12 11 11 13 14 16 16 16 17 17 16 15 14 14 14 13 13 13 12 9
13 9 10 11 8 14 3 4 6 8 9 7 12 9 9 8 10 3 7 11 12 14 14 13 12 10 11 12 14 14 16 16 16 16 15 15 15 14 14 14 13 11 10 11
12 12 10 9 11 13 16 6 5 8 2 8 9 8 10 12 16 10 9 12 14 15 14 14 13 13 10 9 12 14 16 16 16 16 16 15 15 14 14 14 14 12 11 10
6 10 10 7 10 11 6 5 4 3 9 8 9 10 12 13 10 9 15 14 15 16 15 16 17 14 8 10 11 15 16 16 17 16 17 16 14 16 16 15 12 10 12 11
9 9 13 12 13 10 9 7 3 14 4 11 11 11 12 11 12 17 16 15 15 16 16 16 14 13 8 8 12 15 15 16 15 15 15 15 15 14 13 10 6 9 8 7
7 6 8 6 11 15 8 3 8 13 12 15 15 15 14 15 16 17 15 14 15 16 16 14 12 12 10 7 12 14 15 14 14 16 15 16 15 13 11 11 3 7 4 6
6 5 8 6 6 5 12 14 8 13 17 18 16 17 15 17 18 17 15 13 13 14 14 12 11 11 12 6 10 14 13 13 15 16 16 14 13 12 14 8 8 7 6 8
6 7 9 12 7 10 14 17 18 13 12 15 18 19 18 19 18 17 16 12 12 12 13 12 12 11 9 9 9 11 11 13 15 15 16 14 14 15 15 13 13 10 10 11
11 12 14 17 18 16 16 12 11 15 14 16 16 18 18 18 18 16 15 13 12 11 13 12 11 10 11 13 10 12 11 13 14 14 14 15 13 14 13 14 11 12 9 6
10 11 10 13 17 14 17 18 17 17 17 14 16 18 17 17 17 15 15 11 11 11 13 12 13 12 10 11 10 12 12 14 14 13 12 11 11 9 11 11 8 14 12 11
Wind_Direction
180 252 237 260 26 306 296 293 308 328 9 327 321 297 295 279 212 233 226 209 206 205 198 193 195 195 200 193 187 187 188 184 188 194 182 197 205 180 206 209 198 176 184 195
233 239 255 217 266 276 274 279 290 306 322 314 305 304 291 280 248 231 232 228 217 207 199 193 194 190 204 193 191 189 188 181 199 201 191 212 206 199 193 205 180 200 188 183
254 268 10 248 246 243 247 266 297 319 316 292 293 299 332 238 255 254 239 237 222 212 202 193 192 191 196 193 193 189 186 182 194 201 184 198 199 197 183 200 181 184 192 190
263 270 245 248 249 253 260 38 294 301 311 311 332 307 303 58 290 238 248 235 223 207 206 194 190 192 197 196 192 190 186 183 188 188 187 190 200 178 188 186 179 178 193 194
131 201 211 235 246 247 262 79 280 299 295 299 284 261 314 154 333 357 349 285 213 203 196 200 196 189 199 188 193 189 185 185 186 188 206 197 199 182 190 169 164 196 174 194
272 265 263 262 277 240 294 277 272 257 270 268 89 305 306 53 339 351 357 28 199 193 189 193 191 190 190 184 192 185 180 185 187 192 196 203 185 180 192 182 171 176 174 179
234 233 225 228 248 235 229 259 265 241 213 282 96 286 321 315 30 353 352 25 178 186 185 186 184 178 182 185 187 179 186 186 187 189 194 193 194 185 188 181 186 174 180 179
281 185 166 154 234 310 212 267 300 285 278 311 84 262 20 10 22 10 9 86 157 186 186 188 185 181 183 187 184 182 183 187 188 188 189 191 191 188 191 198 181 193 187 179
283 231 130 218 275 252 174 226 288 290 242 259 270 275 254 117 71 25 38 333 178 188 189 193 186 187 191 189 186 184 176 183 191 188 182 186 192 196 203 176 198 197 204 157
43 272 144 88 243 232 262 342 241 215 265 264 267 265 272 346 14 6 20 24 331 199 194 189 191 193 193 199 191 186 176 184 188 183 183 185 190 198 192 182 199 193 191 224
301 260 274 236 235 283 184 224 224 281 295 290 282 265 77 331 7 357 18 29 4 274 205 196 193 192 196 200 198 190 184 189 184 189 182 184 186 191 193 192 197 203 201 202
48 296 274 274 299 291 275 282 284 252 252 234 284 287 30 50 344 30 16 19 9 334 272 209 192 191 191 198 199 197 187 191 190 186 180 188 187 193 192 202 194 203 205 205
11 265 278 259 228 203 244 231 274 280 284 267 279 275 119 169 314 45 15 1 7 355 295 232 201 194 193 191 198 199 190 190 189 185 185 186 189 192 200 195 202 201 200 207
282 269 265 279 305 322 286 268 252 275 271 273 262 266 270 276 1 358 353 2 357 1 344 270 229 199 196 196 197 198 194 190 189 184 189 189 193 192 198 195 197 204 196 208
263 268 276 279 283 283 277 273 273 272 265 269 282 285 299 311 338 348 357 356 4 0 349 324 247 224 198 197 196 199 197 191 190 188 188 193 194 195 202 197 195 198 206 217
222 275 272 278 272 270 275 270 266 261 266 272 266 264 281 292 318 330 355 358 360 353 344 336 311 237 219 209 203 195 197 190 192 192 194 190 189 192 199 199 200 201 204 214
268 272 272 275 299 291 264 259 259 274 267 274 268 277 330 309 314 330 2 3 355 349 341 335 324 278 229 219 206 202 195 188 190 193 196 187 185 193 198 198 203 206 203 207
253 245 273 270 279 257 28 23 311 288 281 314 311 326 5 312 307 295 22 4 356 350 339 332 321 310 258 222 198 203 189 191 188 192 193 188 186 192 194 197 197 202 201 201
231 244 254 249 246 275 284 263 320 313 66 30 343 342 332 327 299 169 31 359 349 347 338 325 324 310 275 238 197 194 197 190 189 186 189 186 189 187 191 192 186 189 187 179
211 233 245 223 269 283 66 53 350 297 238 25 350 335 330 329 292 90 350 346 337 336 339 325 324 311 263 235 204 196 203 193 195 188 188 185 182 192 193 193 179 172 171 175
210 226 237 248 259 259 54 331 314 248 2 343 341 332 330 320 317 312 316 322 324 323 328 329 321 318 295 223 210 204 207 202 196 189 181 183 184 190 185 121 181 190 180 203
272 283 265 245 275 263 45 239 309 349 322 319 313 309 308 311 308 309 310 316 318 316 321 329 322 327 307 233 209 210 211 201 189 184 172 173 176 191 153 153 175 203 208 232
263 271 325 275 314 316 307 299 314 304 304 303 303 298 295 299 300 305 306 309 307 307 309 321 319 313 315 245 218 217 211 200 186 179 175 172 173 177 156 170 201 229 200 233
250 249 256 297 278 288 297 305 304 304 299 299 293 289 288 284 288 298 301 305 303 300 299 312 319 315 311 292 221 226 207 196 190 187 186 178 171 168 162 182 203 196 202 208
288 292 269 270 271 276 282 285 293 308 296 293 294 285 280 277 279 288 293 300 298 296 296 307 309 299 295 293 219 213 199 192 190 186 184 186 193 190 172 188 186 194 191 202
278 280 269 277 294 305 301 294 292 289 288 293 304 297 284 273 276 283 284 291 294 293 294 295 297 293 296 298 218 204 189 188 188 182 178 176 185 166 180 162 143 44 75 82